Saint Bonnet de Bellac- Haute Vienne - France
Donnes mto: lundi, 31/10/2011
Date Horaire Temp. E. Hum. E. P.atmo. Pluie Vent Direction Direction Ensoleilleme Solaire P. de rose Temp au vent Rafales
31/10/2011 00:00 8,8 C 92 % 1019,2 hPa 0,0 mm 0,0 km/h (0 Bft) E 90 0 min 0 W/m 7,6 C 8,8 C 0,0 km/h (0 Bft)
31/10/2011 00:05 8,6 C 92 % 1019,2 hPa 0,0 mm 0,0 km/h (0 Bft) E 90 0 min 0 W/m 7,4 C 8,6 C 0,0 km/h (0 Bft)
31/10/2011 00:10 8,6 C 92 % 1019,1 hPa 0,0 mm 0,0 km/h (0 Bft) E-SE 112 0 min 0 W/m 7,4 C 8,6 C 0,0 km/h (0 Bft)
31/10/2011 00:15 8,5 C 92 % 1019,2 hPa 0,0 mm 0,0 km/h (0 Bft) E-SE 112 0 min 0 W/m 7,3 C 8,5 C 0,0 km/h (0 Bft)
31/10/2011 00:20 8,4 C 92 % 1019,1 hPa 0,0 mm 0,7 km/h (0 Bft) E 90 0 min 0 W/m 7,2 C 8,4 C 0,7 km/h (0 Bft)
31/10/2011 00:25 8,3 C 92 % 1019,0 hPa 0,0 mm 0,4 km/h (0 Bft) E 90 0 min 0 W/m 7,1 C 8,3 C 0,4 km/h (0 Bft)
31/10/2011 00:30 8,3 C 92 % 1019,0 hPa 0,0 mm 1,8 km/h (1 Bft) E-SE 112 0 min 0 W/m 7,1 C 8,3 C 3,2 km/h (1 Bft)
31/10/2011 00:35 8,3 C 92 % 1019,0 hPa 0,0 mm 0,0 km/h (0 Bft) E 90 0 min 0 W/m 7,1 C 8,3 C 0,0 km/h (0 Bft)
31/10/2011 00:40 8,2 C 92 % 1018,9 hPa 0,0 mm 0,0 km/h (0 Bft) SE 135 0 min 0 W/m 7,0 C 8,2 C 0,0 km/h (0 Bft)
31/10/2011 00:45 8,1 C 93 % 1018,9 hPa 0,0 mm 0,0 km/h (0 Bft) E-SE 112 0 min 0 W/m 7,0 C 8,1 C 0,0 km/h (0 Bft)
31/10/2011 00:50 8,1 C 92 % 1018,9 hPa 0,0 mm 0,0 km/h (0 Bft) E-SE 112 0 min 0 W/m 6,9 C 8,1 C 0,0 km/h (0 Bft)
31/10/2011 00:55 8,0 C 92 % 1018,8 hPa 0,0 mm 0,0 km/h (0 Bft) E-SE 112 0 min 0 W/m 6,8 C 8,0 C 0,0 km/h (0 Bft)
31/10/2011 01:00 7,9 C 92 % 1018,8 hPa 0,0 mm 0,0 km/h (0 Bft) E-SE 112 0 min 0 W/m 6,7 C 7,9 C 0,0 km/h (0 Bft)
31/10/2011 01:05 7,9 C 92 % 1018,7 hPa 0,0 mm 0,0 km/h (0 Bft) E-SE 112 0 min 0 W/m 6,7 C 7,9 C 0,0 km/h (0 Bft)
31/10/2011 01:10 7,9 C 92 % 1018,6 hPa 0,0 mm 1,8 km/h (1 Bft) E-SE 112 0 min 0 W/m 6,7 C 7,9 C 3,2 km/h (1 Bft)
31/10/2011 01:15 7,9 C 92 % 1018,7 hPa 0,0 mm 0,0 km/h (0 Bft) E-SE 112 0 min 0 W/m 6,7 C 7,9 C 0,0 km/h (0 Bft)
31/10/2011 01:20 7,9 C 92 % 1018,7 hPa 0,0 mm 0,7 km/h (0 Bft) E-SE 112 0 min 0 W/m 6,7 C 7,9 C 3,6 km/h (1 Bft)
31/10/2011 01:25 7,9 C 92 % 1018,6 hPa 0,0 mm 1,1 km/h (1 Bft) E 90 0 min 0 W/m 6,7 C 7,9 C 4,0 km/h (1 Bft)
31/10/2011 01:30 7,8 C 92 % 1018,6 hPa 0,0 mm 3,6 km/h (1 Bft) E 90 0 min 0 W/m 6,6 C 7,8 C 6,1 km/h (2 Bft)
31/10/2011 01:35 7,8 C 92 % 1018,6 hPa 0,0 mm 1,8 km/h (1 Bft) E-NE 67 0 min 0 W/m 6,6 C 7,8 C 6,5 km/h (2 Bft)
31/10/2011 01:40 7,8 C 92 % 1018,5 hPa 0,0 mm 0,4 km/h (0 Bft) E 90 0 min 0 W/m 6,6 C 7,8 C 3,6 km/h (1 Bft)
31/10/2011 01:45 7,8 C 92 % 1018,4 hPa 0,0 mm 1,1 km/h (1 Bft) E-SE 112 0 min 0 W/m 6,6 C 7,8 C 1,1 km/h (1 Bft)
31/10/2011 01:50 7,7 C 92 % 1018,3 hPa 0,0 mm 0,4 km/h (0 Bft) E-SE 112 0 min 0 W/m 6,5 C 7,7 C 3,2 km/h (1 Bft)
31/10/2011 01:55 7,6 C 92 % 1018,3 hPa 0,0 mm 0,7 km/h (0 Bft) E 90 0 min 0 W/m 6,4 C 7,6 C 4,0 km/h (1 Bft)
31/10/2011 02:02 7,6 C 92 % 1018,2 hPa 0,0 mm 1,4 km/h (1 Bft) E-SE 112 0 min 0 W/m 6,4 C 7,6 C 6,1 km/h (2 Bft)
31/10/2011 02:05 7,5 C 93 % 1018,1 hPa 0,0 mm 2,2 km/h (1 Bft) SE 135 0 min 0 W/m 6,4 C 7,5 C 2,2 km/h (1 Bft)
31/10/2011 02:10 7,5 C 93 % 1018,1 hPa 0,0 mm 3,2 km/h (1 Bft) E-SE 112 0 min 0 W/m 6,4 C 7,5 C 7,2 km/h (2 Bft)
31/10/2011 02:15 7,4 C 93 % 1018,1 hPa 0,0 mm 2,5 km/h (1 Bft) E-SE 112 0 min 0 W/m 6,3 C 7,4 C 3,2 km/h (1 Bft)
31/10/2011 02:20 7,5 C 93 % 1018,0 hPa 0,0 mm 2,9 km/h (1 Bft) E-SE 112 0 min 0 W/m 6,4 C 7,5 C 4,7 km/h (1 Bft)
31/10/2011 02:25 7,5 C 93 % 1018,0 hPa 0,0 mm 1,8 km/h (1 Bft) E-SE 112 0 min 0 W/m 6,4 C 7,5 C 7,2 km/h (2 Bft)
31/10/2011 02:30 7,5 C 93 % 1018,0 hPa 0,0 mm 2,5 km/h (1 Bft) E 90 0 min 0 W/m 6,4 C 7,5 C 4,0 km/h (1 Bft)
31/10/2011 02:35 7,5 C 93 % 1017,8 hPa 0,0 mm 1,8 km/h (1 Bft) E 90 0 min 0 W/m 6,4 C 7,5 C 7,6 km/h (2 Bft)
31/10/2011 02:40 7,5 C 93 % 1017,8 hPa 0,0 mm 0,7 km/h (0 Bft) E-NE 67 0 min 0 W/m 6,4 C 7,5 C 4,3 km/h (1 Bft)
31/10/2011 02:45 7,4 C 93 % 1017,6 hPa 0,0 mm 2,5 km/h (1 Bft) SE 135 0 min 0 W/m 6,3 C 7,4 C 7,2 km/h (2 Bft)
31/10/2011 02:50 7,4 C 93 % 1017,5 hPa 0,0 mm 1,4 km/h (1 Bft) SE 135 0 min 0 W/m 6,3 C 7,4 C 4,0 km/h (1 Bft)
31/10/2011 02:55 7,3 C 93 % 1017,5 hPa 0,0 mm 2,9 km/h (1 Bft) E-NE 67 0 min 0 W/m 6,2 C 7,3 C 6,8 km/h (2 Bft)
31/10/2011 03:00 7,3 C 93 % 1017,5 hPa 0,0 mm 2,9 km/h (1 Bft) SE 135 0 min 0 W/m 6,2 C 7,3 C 4,3 km/h (1 Bft)
31/10/2011 03:05 7,3 C 93 % 1017,5 hPa 0,0 mm 1,8 km/h (1 Bft) E 90 0 min 0 W/m 6,2 C 7,3 C 4,0 km/h (1 Bft)
31/10/2011 03:10 7,2 C 93 % 1017,4 hPa 0,0 mm 1,8 km/h (1 Bft) E-NE 67 0 min 0 W/m 6,1 C 7,2 C 1,8 km/h (1 Bft)
31/10/2011 03:15 7,2 C 93 % 1017,3 hPa 0,0 mm 2,9 km/h (1 Bft) E 90 0 min 0 W/m 6,1 C 7,2 C 4,3 km/h (1 Bft)
31/10/2011 03:20 7,1 C 93 % 1017,2 hPa 0,0 mm 1,8 km/h (1 Bft) SE 135 0 min 0 W/m 6,0 C 7,1 C 4,3 km/h (1 Bft)
31/10/2011 03:25 7,1 C 93 % 1017,2 hPa 0,0 mm 2,9 km/h (1 Bft) E-SE 112 0 min 0 W/m 6,0 C 7,1 C 2,9 km/h (1 Bft)
31/10/2011 03:30 7,1 C 93 % 1017,2 hPa 0,0 mm 0,0 km/h (0 Bft) E-SE 112 0 min 0 W/m 6,0 C 7,1 C 0,0 km/h (0 Bft)
31/10/2011 03:35 7,1 C 93 % 1017,1 hPa 0,0 mm 0,4 km/h (0 Bft) E-SE 112 0 min 0 W/m 6,0 C 7,1 C 3,2 km/h (1 Bft)
31/10/2011 03:40 7,1 C 93 % 1017,0 hPa 0,0 mm 0,4 km/h (0 Bft) SE 135 0 min 0 W/m 6,0 C 7,1 C 3,2 km/h (1 Bft)
31/10/2011 03:45 7,0 C 93 % 1016,9 hPa 0,0 mm 0,0 km/h (0 Bft) E-SE 112 0 min 0 W/m 5,9 C 7,0 C 3,2 km/h (1 Bft)
31/10/2011 03:50 6,9 C 93 % 1016,9 hPa 0,0 mm 0,4 km/h (0 Bft) E-SE 112 0 min 0 W/m 5,8 C 6,9 C 0,4 km/h (0 Bft)
31/10/2011 03:55 6,9 C 93 % 1016,8 hPa 0,0 mm 0,0 km/h (0 Bft) E 90 0 min 0 W/m 5,8 C 6,9 C 0,0 km/h (0 Bft)
31/10/2011 04:00 6,8 C 94 % 1016,8 hPa 0,0 mm 0,0 km/h (0 Bft) E 90 0 min 0 W/m 5,9 C 6,8 C 3,2 km/h (1 Bft)
31/10/2011 04:05 6,8 C 94 % 1016,8 hPa 0,0 mm 1,1 km/h (1 Bft) SE 135 0 min 0 W/m 5,9 C 6,8 C 4,3 km/h (1 Bft)
31/10/2011 04:10 6,8 C 94 % 1016,7 hPa 0,0 mm 0,4 km/h (0 Bft) E 90 0 min 0 W/m 5,9 C 6,8 C 2,9 km/h (1 Bft)
31/10/2011 04:15 6,8 C 94 % 1016,7 hPa 0,0 mm 0,4 km/h (0 Bft) E-SE 112 0 min 0 W/m 5,9 C 6,8 C 3,2 km/h (1 Bft)
31/10/2011 04:20 6,8 C 94 % 1016,7 hPa 0,0 mm 0,0 km/h (0 Bft) E 90 0 min 0 W/m 5,9 C 6,8 C 0,0 km/h (0 Bft)
31/10/2011 04:25 6,8 C 94 % 1016,7 hPa 0,0 mm 0,7 km/h (0 Bft) E-SE 112 0 min 0 W/m 5,9 C 6,8 C 3,2 km/h (1 Bft)
31/10/2011 04:30 6,8 C 94 % 1016,6 hPa 0,0 mm 0,0 km/h (0 Bft) SE 135 0 min 0 W/m 5,9 C 6,8 C 0,0 km/h (0 Bft)
31/10/2011 04:35 6,8 C 94 % 1016,6 hPa 0,3 mm 0,4 km/h (0 Bft) E 90 0 min 0 W/m 5,9 C 6,8 C 3,6 km/h (1 Bft)
31/10/2011 04:40 6,7 C 94 % 1016,6 hPa 0,0 mm 0,4 km/h (0 Bft) E-SE 112 0 min 0 W/m 5,8 C 6,7 C 0,4 km/h (0 Bft)
31/10/2011 04:45 6,6 C 93 % 1016,5 hPa 0,0 mm 1,4 km/h (1 Bft) E-SE 112 0 min 0 W/m 5,6 C 6,6 C 3,6 km/h (1 Bft)
31/10/2011 04:50 6,6 C 93 % 1016,5 hPa 0,0 mm 2,9 km/h (1 Bft) E-SE 112 0 min 0 W/m 5,6 C 6,6 C 6,5 km/h (2 Bft)
31/10/2011 04:55 6,6 C 93 % 1016,5 hPa 0,0 mm 0,4 km/h (0 Bft) SE 135 0 min 0 W/m 5,6 C 6,6 C 4,0 km/h (1 Bft)
31/10/2011 05:00 6,5 C 93 % 1016,5 hPa 0,0 mm 0,4 km/h (0 Bft) E-SE 112 0 min 0 W/m 5,5 C 6,5 C 3,6 km/h (1 Bft)
31/10/2011 05:05 6,5 C 93 % 1016,4 hPa 0,0 mm 0,7 km/h (0 Bft) E-SE 112 0 min 0 W/m 5,5 C 6,5 C 0,7 km/h (0 Bft)
31/10/2011 05:10 6,5 C 93 % 1016,5 hPa 0,0 mm 2,2 km/h (1 Bft) SE 135 0 min 0 W/m 5,5 C 6,5 C 3,6 km/h (1 Bft)
31/10/2011 05:15 6,4 C 93 % 1016,4 hPa 0,0 mm 2,2 km/h (1 Bft) E 90 0 min 0 W/m 5,4 C 6,4 C 3,6 km/h (1 Bft)
31/10/2011 05:20 6,4 C 93 % 1016,4 hPa 0,0 mm 0,4 km/h (0 Bft) E-SE 112 0 min 0 W/m 5,4 C 6,4 C 3,6 km/h (1 Bft)
31/10/2011 05:25 6,4 C 93 % 1016,4 hPa 0,0 mm 1,8 km/h (1 Bft) E-SE 112 0 min 0 W/m 5,4 C 6,4 C 6,8 km/h (2 Bft)
31/10/2011 05:30 6,4 C 93 % 1016,4 hPa 0,0 mm 3,6 km/h (1 Bft) E 90 0 min 0 W/m 5,4 C 6,4 C 7,2 km/h (2 Bft)
31/10/2011 05:35 6,4 C 93 % 1016,4 hPa 0,0 mm 1,8 km/h (1 Bft) SE 135 0 min 0 W/m 5,4 C 6,4 C 6,1 km/h (2 Bft)
31/10/2011 05:40 6,4 C 93 % 1016,4 hPa 0,0 mm 1,8 km/h (1 Bft) E-SE 112 0 min 0 W/m 5,4 C 6,4 C 7,2 km/h (2 Bft)
31/10/2011 05:45 6,4 C 93 % 1016,4 hPa 0,0 mm 1,1 km/h (1 Bft) E 90 0 min 0 W/m 5,4 C 6,4 C 2,9 km/h (1 Bft)
31/10/2011 05:50 6,3 C 93 % 1016,3 hPa 0,0 mm 0,0 km/h (0 Bft) E 90 0 min 0 W/m 5,3 C 6,3 C 0,0 km/h (0 Bft)
31/10/2011 05:55 6,3 C 93 % 1016,4 hPa 0,0 mm 0,4 km/h (0 Bft) E-SE 112 0 min 0 W/m 5,3 C 6,3 C 3,2 km/h (1 Bft)
31/10/2011 06:00 6,3 C 93 % 1016,4 hPa 0,0 mm 0,0 km/h (0 Bft) E 90 0 min 0 W/m 5,3 C 6,3 C 0,0 km/h (0 Bft)
31/10/2011 06:05 6,3 C 93 % 1016,3 hPa 0,0 mm 2,2 km/h (1 Bft) E-SE 112 0 min 0 W/m 5,3 C 6,3 C 4,3 km/h (1 Bft)
31/10/2011 06:10 6,3 C 93 % 1016,3 hPa 0,0 mm 1,4 km/h (1 Bft) SE 135 0 min 0 W/m 5,3 C 6,3 C 4,3 km/h (1 Bft)
31/10/2011 06:15 6,3 C 93 % 1016,3 hPa 0,0 mm 0,4 km/h (0 Bft) E 90 0 min 0 W/m 5,3 C 6,3 C 4,0 km/h (1 Bft)
31/10/2011 06:20 6,3 C 93 % 1016,3 hPa 0,0 mm 0,0 km/h (0 Bft) E-SE 112 0 min 0 W/m 5,3 C 6,3 C 3,6 km/h (1 Bft)
31/10/2011 06:25 6,3 C 94 % 1016,2 hPa 0,0 mm 0,0 km/h (0 Bft) E-SE 112 0 min 0 W/m 5,4 C 6,3 C 0,0 km/h (0 Bft)
31/10/2011 06:30 6,3 C 93 % 1016,2 hPa 0,0 mm 0,0 km/h (0 Bft) E-SE 112 0 min 0 W/m 5,3 C 6,3 C 0,0 km/h (0 Bft)
31/10/2011 06:35 6,3 C 93 % 1016,2 hPa 0,0 mm 2,9 km/h (1 Bft) E 90 0 min 0 W/m 5,3 C 6,3 C 4,3 km/h (1 Bft)
31/10/2011 06:40 6,3 C 93 % 1016,2 hPa 0,0 mm 0,0 km/h (0 Bft) E 90 0 min 0 W/m 5,3 C 6,3 C 0,0 km/h (0 Bft)
31/10/2011 06:45 6,2 C 93 % 1016,1 hPa 0,0 mm 0,7 km/h (0 Bft) E-SE 112 0 min 0 W/m 5,2 C 6,2 C 4,3 km/h (1 Bft)
31/10/2011 06:50 6,2 C 93 % 1016,2 hPa 0,0 mm 1,8 km/h (1 Bft) E-SE 112 0 min 0 W/m 5,2 C 6,2 C 3,6 km/h (1 Bft)
31/10/2011 06:55 6,1 C 93 % 1016,1 hPa 0,0 mm 0,7 km/h (0 Bft) E 90 0 min 0 W/m 5,1 C 6,1 C 0,7 km/h (0 Bft)
31/10/2011 07:00 6,1 C 94 % 1016,2 hPa 0,0 mm 2,5 km/h (1 Bft) E-SE 112 0 min 0 W/m 5,2 C 6,1 C 4,0 km/h (1 Bft)
31/10/2011 07:05 6,1 C 94 % 1016,1 hPa 0,0 mm 1,4 km/h (1 Bft) E-SE 112 0 min 0 W/m 5,2 C 6,1 C 3,6 km/h (1 Bft)
31/10/2011 07:10 6,1 C 93 % 1016,2 hPa 0,0 mm 1,4 km/h (1 Bft) E-SE 112 0 min 0 W/m 5,1 C 6,1 C 3,6 km/h (1 Bft)
31/10/2011 07:15 6,1 C 93 % 1016,2 hPa 0,0 mm 0,0 km/h (0 Bft) E-SE 112 0 min 0 W/m 5,1 C 6,1 C 0,0 km/h (0 Bft)
31/10/2011 07:20 6,0 C 93 % 1016,3 hPa 0,0 mm 1,4 km/h (1 Bft) E 90 0 min 0 W/m 5,0 C 6,0 C 4,3 km/h (1 Bft)
31/10/2011 07:25 5,9 C 94 % 1016,3 hPa 0,0 mm 0,4 km/h (0 Bft) E-SE 112 0 min 0 W/m 5,0 C 5,9 C 0,4 km/h (0 Bft)
31/10/2011 07:30 5,9 C 93 % 1016,3 hPa 0,0 mm 1,4 km/h (1 Bft) E 90 0 min 0 W/m 4,9 C 5,9 C 4,0 km/h (1 Bft)
31/10/2011 07:35 5,9 C 94 % 1016,3 hPa 0,0 mm 0,4 km/h (0 Bft) E-SE 112 0 min 0 W/m 5,0 C 5,9 C 3,2 km/h (1 Bft)
31/10/2011 07:40 5,9 C 94 % 1016,3 hPa 0,0 mm 1,1 km/h (1 Bft) E-SE 112 0 min 0 W/m 5,0 C 5,9 C 1,4 km/h (1 Bft)
31/10/2011 07:45 5,9 C 94 % 1016,4 hPa 0,0 mm 2,9 km/h (1 Bft) E-SE 112 0 min 0 W/m 5,0 C 5,9 C 3,6 km/h (1 Bft)
31/10/2011 07:50 5,9 C 94 % 1016,4 hPa 0,0 mm 2,5 km/h (1 Bft) E-SE 112 0 min 0 W/m 5,0 C 5,9 C 4,3 km/h (1 Bft)
31/10/2011 07:55 5,9 C 94 % 1016,2 hPa 0,0 mm 0,4 km/h (0 Bft) E 90 0 min 0 W/m 5,0 C 5,9 C 4,3 km/h (1 Bft)
31/10/2011 08:00 6,0 C 94 % 1016,3 hPa 0,0 mm 1,4 km/h (1 Bft) E 90 0 min 0 W/m 5,1 C 6,0 C 4,0 km/h (1 Bft)
31/10/2011 08:05 6,0 C 94 % 1016,4 hPa 0,0 mm 1,4 km/h (1 Bft) N 360 0 min 0 W/m 5,1 C 6,0 C 1,4 km/h (1 Bft)
31/10/2011 08:10 6,1 C 94 % 1016,4 hPa 0,0 mm 3,2 km/h (1 Bft) E 90 0 min 0 W/m 5,2 C 6,1 C 9,0 km/h (2 Bft)
31/10/2011 08:15 6,1 C 94 % 1016,5 hPa 0,0 mm 4,3 km/h (1 Bft) E-SE 112 0 min 0 W/m 5,2 C 6,1 C 6,8 km/h (2 Bft)
31/10/2011 08:20 6,3 C 94 % 1016,4 hPa 0,0 mm 0,4 km/h (0 Bft) SE 135 0 min 0 W/m 5,4 C 6,3 C 0,4 km/h (0 Bft)
31/10/2011 08:25 6,6 C 94 % 1016,4 hPa 0,0 mm 2,9 km/h (1 Bft) SE 135 0 min 0 W/m 5,7 C 6,6 C 4,3 km/h (1 Bft)
31/10/2011 08:30 6,9 C 95 % 1016,5 hPa 0,0 mm 0,0 km/h (0 Bft) SE 135 0 min 0 W/m 6,2 C 6,9 C 0,0 km/h (0 Bft)
31/10/2011 08:35 7,3 C 95 % 1016,5 hPa 0,0 mm 1,1 km/h (1 Bft) SE 135 0 min 0 W/m 6,6 C 7,3 C 1,1 km/h (1 Bft)
31/10/2011 08:40 7,6 C 95 % 1016,4 hPa 0,0 mm 1,1 km/h (1 Bft) E-SE 112 0 min 0 W/m 6,9 C 7,6 C 1,1 km/h (1 Bft)
31/10/2011 08:45 7,8 C 94 % 1016,3 hPa 0,0 mm 3,2 km/h (1 Bft) E-SE 112 0 min 0 W/m 6,9 C 7,8 C 3,2 km/h (1 Bft)
31/10/2011 08:50 8,2 C 93 % 1016,4 hPa 0,0 mm 2,9 km/h (1 Bft) SE 135 0 min 0 W/m 7,1 C 8,2 C 2,9 km/h (1 Bft)
31/10/2011 08:55 8,5 C 94 % 1016,4 hPa 0,0 mm 0,4 km/h (0 Bft) SE 135 0 min 0 W/m 7,6 C 8,5 C 1,4 km/h (1 Bft)
31/10/2011 09:00 8,9 C 93 % 1016,4 hPa 0,0 mm 0,0 km/h (0 Bft) E-SE 112 0 min 0 W/m 7,8 C 8,9 C 0,0 km/h (0 Bft)
31/10/2011 09:05 9,3 C 93 % 1016,3 hPa 0,0 mm 0,0 km/h (0 Bft) E 90 0 min 0 W/m 8,2 C 9,3 C 0,0 km/h (0 Bft)
31/10/2011 09:10 9,8 C 92 % 1016,3 hPa 0,0 mm 0,0 km/h (0 Bft) E 90 0 min 0 W/m 8,6 C 9,8 C 0,0 km/h (0 Bft)
31/10/2011 09:15 10,1 C 92 % 1016,2 hPa 0,0 mm 0,0 km/h (0 Bft) E 90 0 min 0 W/m 8,9 C 10,1 C 0,0 km/h (0 Bft)
31/10/2011 09:20 10,6 C 91 % 1016,1 hPa 0,0 mm 0,0 km/h (0 Bft) E-SE 112 0 min 0 W/m 9,2 C 10,6 C 1,8 km/h (1 Bft)
31/10/2011 09:25 10,9 C 90 % 1016,1 hPa 0,0 mm 0,7 km/h (0 Bft) SE 135 0 min 0 W/m 9,3 C 10,9 C 0,7 km/h (0 Bft)
31/10/2011 09:30 11,4 C 90 % 1016,1 hPa 0,0 mm 0,4 km/h (0 Bft) SE 135 0 min 0 W/m 9,8 C 11,4 C 3,2 km/h (1 Bft)
31/10/2011 09:35 11,7 C 89 % 1016,1 hPa 0,0 mm 2,5 km/h (1 Bft) SE 135 0 min 0 W/m 9,9 C 11,7 C 4,3 km/h (1 Bft)
31/10/2011 09:40 11,9 C 87 % 1016,1 hPa 0,0 mm 4,7 km/h (1 Bft) E-SE 112 0 min 0 W/m 9,8 C 11,9 C 6,1 km/h (2 Bft)
31/10/2011 09:45 12,1 C 85 % 1016,1 hPa 0,0 mm 3,2 km/h (1 Bft) E-SE 112 0 min 0 W/m 9,7 C 12,1 C 6,8 km/h (2 Bft)
31/10/2011 09:50 12,3 C 85 % 1016,0 hPa 0,0 mm 0,4 km/h (0 Bft) E-SE 112 0 min 0 W/m 9,9 C 12,3 C 3,6 km/h (1 Bft)
31/10/2011 09:55 12,8 C 85 % 1016,0 hPa 0,0 mm 0,0 km/h (0 Bft) E-SE 112 0 min 0 W/m 10,3 C 12,8 C 0,0 km/h (0 Bft)
31/10/2011 10:00 13,3 C 84 % 1016,0 hPa 0,0 mm 0,0 km/h (0 Bft) E 90 0 min 0 W/m 10,7 C 13,3 C 0,0 km/h (0 Bft)
31/10/2011 10:05 13,7 C 83 % 1015,9 hPa 0,0 mm 0,0 km/h (0 Bft) E 90 0 min 0 W/m 10,9 C 13,7 C 0,0 km/h (0 Bft)
31/10/2011 10:10 14,0 C 83 % 1016,0 hPa 0,0 mm 0,0 km/h (0 Bft) E 90 0 min 0 W/m 11,2 C 14,0 C 0,0 km/h (0 Bft)
31/10/2011 10:15 14,4 C 81 % 1016,0 hPa 0,0 mm 0,0 km/h (0 Bft) E 90 0 min 0 W/m 11,2 C 14,4 C 0,0 km/h (0 Bft)
31/10/2011 10:20 14,8 C 81 % 1015,9 hPa 0,0 mm 0,7 km/h (0 Bft) E 90 0 min 0 W/m 11,6 C 14,8 C 3,6 km/h (1 Bft)
31/10/2011 10:25 15,1 C 80 % 1015,9 hPa 0,0 mm 0,0 km/h (0 Bft) E 90 0 min 0 W/m 11,7 C 15,1 C 0,0 km/h (0 Bft)
31/10/2011 10:30 15,4 C 80 % 1016,1 hPa 0,0 mm 0,0 km/h (0 Bft) E 90 0 min 0 W/m 12,0 C 15,4 C 0,0 km/h (0 Bft)
31/10/2011 10:35 15,8 C 79 % 1016,0 hPa 0,0 mm 0,4 km/h (0 Bft) E 90 0 min 0 W/m 12,2 C 15,8 C 0,4 km/h (0 Bft)
31/10/2011 10:40 16,1 C 79 % 1016,0 hPa 0,0 mm 0,0 km/h (0 Bft) E 90 0 min 0 W/m 12,5 C 16,1 C 0,0 km/h (0 Bft)
31/10/2011 10:45 16,5 C 78 % 1016,0 hPa 0,0 mm 0,0 km/h (0 Bft) E 90 0 min 0 W/m 12,6 C 16,5 C 0,0 km/h (0 Bft)
31/10/2011 10:50 16,9 C 77 % 1016,1 hPa 0,0 mm 0,0 km/h (0 Bft) E 90 0 min 0 W/m 12,8 C 16,9 C 0,0 km/h (0 Bft)
31/10/2011 10:55 17,3 C 76 % 1016,2 hPa 0,0 mm 0,0 km/h (0 Bft) SE 135 0 min 0 W/m 13,0 C 17,3 C 0,0 km/h (0 Bft)
31/10/2011 11:00 17,6 C 74 % 1016,3 hPa 0,0 mm 2,2 km/h (1 Bft) S-SE 157 0 min 0 W/m 12,9 C 17,6 C 2,2 km/h (1 Bft)
31/10/2011 11:05 17,9 C 73 % 1016,3 hPa 0,0 mm 2,9 km/h (1 Bft) S-SE 157 0 min 0 W/m 13,0 C 17,9 C 2,9 km/h (1 Bft)
31/10/2011 11:10 18,0 C 67 % 1016,3 hPa 0,0 mm 4,0 km/h (1 Bft) S-SO 202 0 min 0 W/m 11,8 C 18,0 C 7,2 km/h (2 Bft)
31/10/2011 11:15 18,2 C 69 % 1016,2 hPa 0,0 mm 1,4 km/h (1 Bft) SO 225 0 min 0 W/m 12,4 C 18,2 C 1,4 km/h (1 Bft)
31/10/2011 11:20 18,5 C 67 % 1016,2 hPa 0,0 mm 2,9 km/h (1 Bft) S-SO 202 0 min 0 W/m 12,3 C 18,5 C 6,8 km/h (2 Bft)
31/10/2011 11:25 18,8 C 65 % 1016,2 hPa 0,0 mm 2,5 km/h (1 Bft) S-SO 202 0 min 0 W/m 12,1 C 18,8 C 2,5 km/h (1 Bft)
31/10/2011 11:30 18,9 C 66 % 1016,2 hPa 0,0 mm 7,6 km/h (2 Bft) S-SE 157 0 min 0 W/m 12,4 C 18,9 C 9,7 km/h (2 Bft)
31/10/2011 11:35 19,1 C 64 % 1016,2 hPa 0,0 mm 3,6 km/h (1 Bft) S 180 0 min 0 W/m 12,1 C 19,1 C 6,5 km/h (2 Bft)
31/10/2011 11:40 19,2 C 65 % 1016,2 hPa 0,0 mm 3,2 km/h (1 Bft) S 180 0 min 0 W/m 12,5 C 19,2 C 3,2 km/h (1 Bft)
31/10/2011 11:45 19,4 C 63 % 1016,1 hPa 0,0 mm 1,8 km/h (1 Bft) S 180 0 min 0 W/m 12,2 C 19,4 C 3,6 km/h (1 Bft)
31/10/2011 11:50 19,6 C 62 % 1016,1 hPa 0,0 mm 1,1 km/h (1 Bft) SO 225 0 min 0 W/m 12,1 C 19,6 C 4,3 km/h (1 Bft)
31/10/2011 11:55 19,6 C 64 % 1016,0 hPa 0,0 mm 5,4 km/h (2 Bft) S-SE 157 0 min 0 W/m 12,6 C 19,6 C 7,6 km/h (2 Bft)
31/10/2011 12:00 19,5 C 62 % 1015,9 hPa 0,0 mm 4,3 km/h (1 Bft) S-SO 202 0 min 0 W/m 12,0 C 19,5 C 4,3 km/h (1 Bft)
31/10/2011 12:05 19,6 C 63 % 1016,0 hPa 0,0 mm 1,1 km/h (1 Bft) SO 225 0 min 0 W/m 12,4 C 19,6 C 4,3 km/h (1 Bft)
31/10/2011 12:10 19,8 C 63 % 1015,9 hPa 0,0 mm 4,7 km/h (1 Bft) S-SE 157 0 min 0 W/m 12,5 C 19,8 C 6,5 km/h (2 Bft)
31/10/2011 12:15 19,9 C 61 % 1016,0 hPa 0,0 mm 6,8 km/h (2 Bft) S 180 0 min 0 W/m 12,2 C 19,9 C 7,6 km/h (2 Bft)
31/10/2011 12:20 19,9 C 60 % 1015,9 hPa 0,0 mm 4,3 km/h (1 Bft) S-SE 157 0 min 0 W/m 11,9 C 19,9 C 6,8 km/h (2 Bft)
31/10/2011 12:25 19,9 C 60 % 1015,9 hPa 0,0 mm 1,4 km/h (1 Bft) SO 225 0 min 0 W/m 11,9 C 19,9 C 4,0 km/h (1 Bft)
31/10/2011 12:30 20,0 C 62 % 1015,7 hPa 0,0 mm 5,4 km/h (2 Bft) S 180 0 min 0 W/m 12,5 C 20,0 C 9,0 km/h (2 Bft)
31/10/2011 12:35 20,0 C 60 % 1015,8 hPa 0,0 mm 4,3 km/h (1 Bft) S-SE 157 0 min 0 W/m 12,0 C 20,0 C 9,0 km/h (2 Bft)
31/10/2011 12:40 19,9 C 62 % 1015,6 hPa 0,0 mm 5,8 km/h (2 Bft) S 180 0 min 0 W/m 12,4 C 19,9 C 7,2 km/h (2 Bft)
31/10/2011 12:45 19,8 C 61 % 1015,6 hPa 0,0 mm 4,7 km/h (1 Bft) S 180 0 min 0 W/m 12,1 C 19,8 C 7,9 km/h (2 Bft)
31/10/2011 12:50 19,9 C 60 % 1015,5 hPa 0,0 mm 3,6 km/h (1 Bft) S 180 0 min 0 W/m 11,9 C 19,9 C 7,2 km/h (2 Bft)
31/10/2011 12:55 20,1 C 60 % 1015,5 hPa 0,0 mm 5,0 km/h (1 Bft) S 180 0 min 0 W/m 12,1 C 20,1 C 9,7 km/h (2 Bft)
31/10/2011 13:00 20,2 C 62 % 1015,5 hPa 0,0 mm 2,9 km/h (1 Bft) S-SE 157 0 min 0 W/m 12,7 C 20,2 C 8,3 km/h (2 Bft)
31/10/2011 13:05 20,3 C 61 % 1015,3 hPa 0,0 mm 0,7 km/h (0 Bft) S 180 0 min 0 W/m 12,5 C 20,3 C 5,8 km/h (2 Bft)
31/10/2011 13:10 20,3 C 59 % 1015,1 hPa 0,0 mm 7,2 km/h (2 Bft) S 180 0 min 0 W/m 12,0 C 20,3 C 8,3 km/h (2 Bft)
31/10/2011 13:15 20,3 C 60 % 1015,1 hPa 0,0 mm 4,3 km/h (1 Bft) S 180 0 min 0 W/m 12,3 C 20,3 C 8,6 km/h (2 Bft)
31/10/2011 13:20 20,4 C 60 % 1014,9 hPa 0,0 mm 5,8 km/h (2 Bft) E-SE 112 0 min 0 W/m 12,4 C 20,4 C 9,0 km/h (2 Bft)
31/10/2011 13:25 20,4 C 60 % 1014,9 hPa 0,0 mm 4,7 km/h (1 Bft) S-SE 157 0 min 0 W/m 12,4 C 20,4 C 9,4 km/h (2 Bft)
31/10/2011 13:30 20,4 C 60 % 1014,8 hPa 0,0 mm 5,4 km/h (2 Bft) S 180 0 min 0 W/m 12,4 C 20,4 C 8,6 km/h (2 Bft)
31/10/2011 13:35 20,4 C 59 % 1014,9 hPa 0,0 mm 4,7 km/h (1 Bft) S-SO 202 0 min 0 W/m 12,1 C 20,4 C 4,7 km/h (1 Bft)
31/10/2011 13:40 20,4 C 58 % 1014,8 hPa 0,0 mm 7,2 km/h (2 Bft) SE 135 0 min 0 W/m 11,9 C 20,4 C 7,2 km/h (2 Bft)
31/10/2011 13:45 20,3 C 57 % 1014,8 hPa 0,0 mm 7,9 km/h (2 Bft) S 180 0 min 0 W/m 11,5 C 20,3 C 7,9 km/h (2 Bft)
31/10/2011 13:50 20,2 C 59 % 1014,7 hPa 0,0 mm 3,2 km/h (1 Bft) S 180 0 min 0 W/m 11,9 C 20,2 C 8,3 km/h (2 Bft)
31/10/2011 13:55 20,2 C 59 % 1014,7 hPa 0,0 mm 7,2 km/h (2 Bft) S-SE 157 0 min 0 W/m 11,9 C 20,2 C 7,2 km/h (2 Bft)
31/10/2011 14:00 20,1 C 59 % 1014,5 hPa 0,0 mm 10,1 km/h (2 Bft) SE 135 0 min 0 W/m 11,8 C 20,1 C 15,8 km/h (3 Bft)
31/10/2011 14:05 19,9 C 60 % 1014,4 hPa 0,0 mm 6,8 km/h (2 Bft) S-SE 157 0 min 0 W/m 11,9 C 19,9 C 6,8 km/h (2 Bft)
31/10/2011 14:10 19,9 C 61 % 1014,1 hPa 0,0 mm 3,6 km/h (1 Bft) S-SE 157 0 min 0 W/m 12,2 C 19,9 C 9,7 km/h (2 Bft)
31/10/2011 14:15 19,8 C 61 % 1014,1 hPa 0,0 mm 4,0 km/h (1 Bft) S-SO 202 0 min 0 W/m 12,1 C 19,8 C 10,1 km/h (2 Bft)
31/10/2011 14:20 19,8 C 61 % 1013,9 hPa 0,0 mm 4,0 km/h (1 Bft) S-SE 157 0 min 0 W/m 12,1 C 19,8 C 7,6 km/h (2 Bft)
31/10/2011 14:25 19,6 C 61 % 1013,8 hPa 0,0 mm 4,7 km/h (1 Bft) SE 135 0 min 0 W/m 11,9 C 19,6 C 7,6 km/h (2 Bft)
31/10/2011 14:30 19,5 C 62 % 1013,8 hPa 0,0 mm 2,2 km/h (1 Bft) S-SO 202 0 min 0 W/m 12,0 C 19,5 C 6,5 km/h (2 Bft)
31/10/2011 14:35 19,5 C 62 % 1013,7 hPa 0,0 mm 7,6 km/h (2 Bft) S-SO 202 0 min 0 W/m 12,0 C 19,5 C 7,6 km/h (2 Bft)
31/10/2011 14:40 19,4 C 62 % 1013,5 hPa 0,0 mm 7,2 km/h (2 Bft) SE 135 0 min 0 W/m 11,9 C 19,4 C 11,2 km/h (2 Bft)
31/10/2011 14:45 19,3 C 63 % 1013,6 hPa 0,0 mm 0,0 km/h (0 Bft) S-SE 157 0 min 0 W/m 12,1 C 19,3 C 2,9 km/h (1 Bft)
31/10/2011 14:50 19,4 C 63 % 1013,5 hPa 0,0 mm 6,8 km/h (2 Bft) S-SE 157 0 min 0 W/m 12,2 C 19,4 C 9,7 km/h (2 Bft)
31/10/2011 14:55 19,4 C 63 % 1013,5 hPa 0,0 mm 3,2 km/h (1 Bft) S 180 0 min 0 W/m 12,2 C 19,4 C 3,2 km/h (1 Bft)
31/10/2011 15:00 19,4 C 62 % 1013,5 hPa 0,0 mm 3,6 km/h (1 Bft) S-SE 157 0 min 0 W/m 11,9 C 19,4 C 8,6 km/h (2 Bft)
31/10/2011 15:05 19,4 C 63 % 1013,4 hPa 0,0 mm 1,4 km/h (1 Bft) S-SO 202 0 min 0 W/m 12,2 C 19,4 C 6,1 km/h (2 Bft)
31/10/2011 15:10 19,4 C 62 % 1013,3 hPa 0,0 mm 1,4 km/h (1 Bft) S 180 0 min 0 W/m 11,9 C 19,4 C 3,6 km/h (1 Bft)
31/10/2011 15:15 19,4 C 63 % 1013,2 hPa 0,0 mm 1,4 km/h (1 Bft) N 360 0 min 0 W/m 12,2 C 19,4 C 1,4 km/h (1 Bft)
31/10/2011 15:20 19,4 C 62 % 1013,2 hPa 0,0 mm 7,6 km/h (2 Bft) S-SE 157 0 min 0 W/m 11,9 C 19,4 C 11,5 km/h (2 Bft)
31/10/2011 15:25 19,3 C 62 % 1013,2 hPa 0,0 mm 6,5 km/h (2 Bft) S 180 0 min 0 W/m 11,8 C 19,3 C 7,2 km/h (2 Bft)
31/10/2011 15:30 19,3 C 63 % 1013,2 hPa 0,0 mm 1,8 km/h (1 Bft) S-SO 202 0 min 0 W/m 12,1 C 19,3 C 4,3 km/h (1 Bft)
31/10/2011 15:35 19,3 C 64 % 1013,2 hPa 0,0 mm 5,0 km/h (1 Bft) SE 135 0 min 0 W/m 12,3 C 19,3 C 9,4 km/h (2 Bft)
31/10/2011 15:40 19,2 C 62 % 1013,1 hPa 0,0 mm 2,2 km/h (1 Bft) S 180 0 min 0 W/m 11,7 C 19,2 C 4,3 km/h (1 Bft)
31/10/2011 15:45 19,2 C 62 % 1013,0 hPa 0,0 mm 6,1 km/h (2 Bft) S-SE 157 0 min 0 W/m 11,7 C 19,2 C 11,5 km/h (2 Bft)
31/10/2011 15:50 19,2 C 62 % 1012,9 hPa 0,0 mm 3,2 km/h (1 Bft) S-SO 202 0 min 0 W/m 11,7 C 19,2 C 4,0 km/h (1 Bft)
31/10/2011 15:55 19,1 C 62 % 1012,9 hPa 0,0 mm 2,9 km/h (1 Bft) S 180 0 min 0 W/m 11,6 C 19,1 C 7,2 km/h (2 Bft)
31/10/2011 16:00 19,1 C 62 % 1012,9 hPa 0,0 mm 5,8 km/h (2 Bft) S 180 0 min 0 W/m 11,6 C 19,1 C 11,5 km/h (2 Bft)
31/10/2011 16:05 19,1 C 61 % 1012,9 hPa 0,0 mm 5,0 km/h (1 Bft) SO 225 0 min 0 W/m 11,4 C 19,1 C 6,8 km/h (2 Bft)
31/10/2011 16:10 18,9 C 62 % 1012,9 hPa 0,0 mm 4,7 km/h (1 Bft) S-SO 202 0 min 0 W/m 11,5 C 18,9 C 12,2 km/h (2 Bft)
31/10/2011 16:15 18,9 C 62 % 1012,8 hPa 0,0 mm 5,0 km/h (1 Bft) S-SE 157 0 min 0 W/m 11,5 C 18,9 C 10,4 km/h (2 Bft)
31/10/2011 16:20 18,9 C 62 % 1012,9 hPa 0,0 mm 6,1 km/h (2 Bft) S 180 0 min 0 W/m 11,5 C 18,9 C 8,3 km/h (2 Bft)
31/10/2011 16:25 18,8 C 62 % 1012,8 hPa 0,0 mm 5,0 km/h (1 Bft) S 180 0 min 0 W/m 11,4 C 18,8 C 7,6 km/h (2 Bft)
31/10/2011 16:30 18,8 C 62 % 1012,7 hPa 0,0 mm 6,1 km/h (2 Bft) SE 135 0 min 0 W/m 11,4 C 18,8 C 11,5 km/h (2 Bft)
31/10/2011 16:35 18,8 C 62 % 1012,7 hPa 0,0 mm 2,9 km/h (1 Bft) S 180 0 min 0 W/m 11,4 C 18,8 C 4,3 km/h (1 Bft)
31/10/2011 16:40 18,8 C 63 % 1012,6 hPa 0,0 mm 3,2 km/h (1 Bft) S-SE 157 0 min 0 W/m 11,6 C 18,8 C 4,3 km/h (1 Bft)
31/10/2011 16:45 18,6 C 63 % 1012,6 hPa 0,0 mm 0,0 km/h (0 Bft) S 180 0 min 0 W/m 11,4 C 18,6 C 0,0 km/h (0 Bft)
31/10/2011 16:50 18,6 C 63 % 1012,6 hPa 0,0 mm 2,5 km/h (1 Bft) S 180 0 min 0 W/m 11,4 C 18,6 C 3,6 km/h (1 Bft)
31/10/2011 16:55 18,4 C 64 % 1012,6 hPa 0,0 mm 1,4 km/h (1 Bft) S-SE 157 0 min 0 W/m 11,5 C 18,4 C 1,4 km/h (1 Bft)
31/10/2011 17:00 18,2 C 64 % 1012,5 hPa 0,0 mm 1,4 km/h (1 Bft) S 180 0 min 0 W/m 11,3 C 18,2 C 3,2 km/h (1 Bft)
31/10/2011 17:05 18,1 C 64 % 1012,4 hPa 0,0 mm 0,4 km/h (0 Bft) S 180 0 min 0 W/m 11,2 C 18,1 C 3,2 km/h (1 Bft)
31/10/2011 17:10 17,8 C 65 % 1012,4 hPa 0,0 mm 1,4 km/h (1 Bft) S 180 0 min 0 W/m 11,1 C 17,8 C 1,4 km/h (1 Bft)
31/10/2011 17:15 17,7 C 65 % 1012,3 hPa 0,0 mm 0,0 km/h (0 Bft) S-SO 202 0 min 0 W/m 11,0 C 17,7 C 2,9 km/h (1 Bft)
31/10/2011 17:20 17,4 C 66 % 1012,2 hPa 0,0 mm 0,0 km/h (0 Bft) S-SE 157 0 min 0 W/m 11,0 C 17,4 C 0,0 km/h (0 Bft)
31/10/2011 17:25 17,2 C 67 % 1012,3 hPa 0,0 mm 0,0 km/h (0 Bft) S-SE 157 0 min 0 W/m 11,0 C 17,2 C 0,0 km/h (0 Bft)
31/10/2011 17:30 16,9 C 67 % 1012,2 hPa 0,0 mm 0,0 km/h (0 Bft) S-SE 157 0 min 0 W/m 10,7 C 16,9 C 0,0 km/h (0 Bft)
31/10/2011 17:35 16,8 C 68 % 1012,3 hPa 0,0 mm 0,0 km/h (0 Bft) S-SE 157 0 min 0 W/m 10,9 C 16,8 C 0,0 km/h (0 Bft)
31/10/2011 17:40 16,5 C 68 % 1012,2 hPa 0,0 mm 0,0 km/h (0 Bft) S-SE 157 0 min 0 W/m 10,6 C 16,5 C 0,0 km/h (0 Bft)
31/10/2011 17:45 16,3 C 69 % 1012,3 hPa 0,0 mm 1,4 km/h (1 Bft) S 180 0 min 0 W/m 10,6 C 16,3 C 4,0 km/h (1 Bft)
31/10/2011 17:50 16,1 C 69 % 1012,2 hPa 0,0 mm 0,4 km/h (0 Bft) S 180 0 min 0 W/m 10,4 C 16,1 C 0,4 km/h (0 Bft)
31/10/2011 17:55 15,8 C 70 % 1012,3 hPa 0,0 mm 0,0 km/h (0 Bft) S 180 0 min 0 W/m 10,3 C 15,8 C 0,0 km/h (0 Bft)
31/10/2011 18:00 15,7 C 71 % 1012,2 hPa 0,0 mm 0,0 km/h (0 Bft) S-SE 157 0 min 0 W/m 10,5 C 15,7 C 0,0 km/h (0 Bft)
31/10/2011 18:05 15,5 C 72 % 1012,3 hPa 0,0 mm 0,4 km/h (0 Bft) S-SE 157 0 min 0 W/m 10,5 C 15,5 C 3,2 km/h (1 Bft)
31/10/2011 18:10 15,4 C 72 % 1012,4 hPa 0,0 mm 0,0 km/h (0 Bft) S-SE 157 0 min 0 W/m 10,4 C 15,4 C 0,0 km/h (0 Bft)
31/10/2011 18:15 15,1 C 73 % 1012,4 hPa 0,0 mm 0,0 km/h (0 Bft) S-SE 157 0 min 0 W/m 10,3 C 15,1 C 0,0 km/h (0 Bft)
31/10/2011 18:20 14,9 C 74 % 1012,4 hPa 0,0 mm 0,0 km/h (0 Bft) S-SE 157 0 min 0 W/m 10,3 C 14,9 C 0,0 km/h (0 Bft)
31/10/2011 18:25 14,8 C 74 % 1012,4 hPa 0,0 mm 0,0 km/h (0 Bft) S-SE 157 0 min 0 W/m 10,2 C 14,8 C 0,0 km/h (0 Bft)
31/10/2011 18:30 14,6 C 74 % 1012,4 hPa 0,0 mm 0,0 km/h (0 Bft) S-SE 157 0 min 0 W/m 10,0 C 14,6 C 0,0 km/h (0 Bft)
31/10/2011 18:35 14,5 C 75 % 1012,3 hPa 0,0 mm 0,0 km/h (0 Bft) S-SE 157 0 min 0 W/m 10,1 C 14,5 C 0,0 km/h (0 Bft)
31/10/2011 18:40 14,3 C 76 % 1012,3 hPa 0,0 mm 1,1 km/h (1 Bft) S 180 0 min 0 W/m 10,1 C 14,3 C 4,0 km/h (1 Bft)
31/10/2011 18:45 14,2 C 76 % 1012,3 hPa 0,0 mm 0,0 km/h (0 Bft) S-SE 157 0 min 0 W/m 10,0 C 14,2 C 3,2 km/h (1 Bft)
31/10/2011 18:50 14,1 C 77 % 1012,3 hPa 0,0 mm 0,4 km/h (0 Bft) S-SO 202 0 min 0 W/m 10,1 C 14,1 C 0,4 km/h (0 Bft)
31/10/2011 18:55 14,0 C 78 % 1012,5 hPa 0,0 mm 0,0 km/h (0 Bft) S 180 0 min 0 W/m 10,2 C 14,0 C 0,0 km/h (0 Bft)
31/10/2011 19:00 13,8 C 78 % 1012,4 hPa 0,0 mm 0,0 km/h (0 Bft) S 180 0 min 0 W/m 10,0 C 13,8 C 0,0 km/h (0 Bft)
31/10/2011 19:05 13,7 C 79 % 1012,5 hPa 0,0 mm 0,0 km/h (0 Bft) S 180 0 min 0 W/m 10,1 C 13,7 C 0,0 km/h (0 Bft)
31/10/2011 19:10 13,5 C 79 % 1012,5 hPa 0,0 mm 0,0 km/h (0 Bft) S 180 0 min 0 W/m 9,9 C 13,5 C 0,0 km/h (0 Bft)
31/10/2011 19:15 13,4 C 79 % 1012,5 hPa 0,0 mm 0,0 km/h (0 Bft) S 180 0 min 0 W/m 9,8 C 13,4 C 0,0 km/h (0 Bft)
31/10/2011 19:20 13,3 C 79 % 1012,5 hPa 0,0 mm 0,0 km/h (0 Bft) S-SE 157 0 min 0 W/m 9,7 C 13,3 C 0,0 km/h (0 Bft)
31/10/2011 19:25 13,3 C 81 % 1012,5 hPa 0,0 mm 0,0 km/h (0 Bft) S-SE 157 0 min 0 W/m 10,1 C 13,3 C 0,0 km/h (0 Bft)
31/10/2011 19:30 13,3 C 81 % 1012,5 hPa 0,0 mm 0,0 km/h (0 Bft) S-SE 157 0 min 0 W/m 10,1 C 13,3 C 0,0 km/h (0 Bft)
31/10/2011 19:35 13,3 C 81 % 1012,5 hPa 0,0 mm 0,0 km/h (0 Bft) S-SE 157 0 min 0 W/m 10,1 C 13,3 C 0,0 km/h (0 Bft)
31/10/2011 19:40 13,3 C 81 % 1012,5 hPa 0,0 mm 0,0 km/h (0 Bft) S-SE 157 0 min 0 W/m 10,1 C 13,3 C 0,0 km/h (0 Bft)
31/10/2011 19:45 13,2 C 81 % 1012,5 hPa 0,0 mm 0,0 km/h (0 Bft) S-SE 157 0 min 0 W/m 10,0 C 13,2 C 0,0 km/h (0 Bft)
31/10/2011 19:50 13,2 C 81 % 1012,5 hPa 0,0 mm 0,0 km/h (0 Bft) S-SE 157 0 min 0 W/m 10,0 C 13,2 C 0,0 km/h (0 Bft)
31/10/2011 19:55 13,1 C 81 % 1012,5 hPa 0,0 mm 0,0 km/h (0 Bft) S-SE 157 0 min 0 W/m 9,9 C 13,1 C 0,0 km/h (0 Bft)
31/10/2011 20:00 12,8 C 81 % 1012,5 hPa 0,0 mm 0,0 km/h (0 Bft) S-SE 157 0 min 0 W/m 9,6 C 12,8 C 0,0 km/h (0 Bft)
31/10/2011 20:05 12,8 C 82 % 1012,5 hPa 0,0 mm 0,0 km/h (0 Bft) S-SE 157 0 min 0 W/m 9,8 C 12,8 C 0,0 km/h (0 Bft)
31/10/2011 20:10 12,6 C 82 % 1012,5 hPa 0,0 mm 0,0 km/h (0 Bft) S-SE 157 0 min 0 W/m 9,6 C 12,6 C 0,0 km/h (0 Bft)
31/10/2011 20:15 12,4 C 83 % 1012,5 hPa 0,0 mm 0,0 km/h (0 Bft) S-SE 157 0 min 0 W/m 9,6 C 12,4 C 0,0 km/h (0 Bft)
31/10/2011 20:20 12,4 C 83 % 1012,5 hPa 0,0 mm 0,0 km/h (0 Bft) S-SE 157 0 min 0 W/m 9,6 C 12,4 C 0,0 km/h (0 Bft)
31/10/2011 20:25 12,3 C 84 % 1012,6 hPa 0,0 mm 0,0 km/h (0 Bft) S-SE 157 0 min 0 W/m 9,7 C 12,3 C 0,0 km/h (0 Bft)
31/10/2011 20:30 12,2 C 84 % 1012,5 hPa 0,0 mm 0,0 km/h (0 Bft) S-SE 157 0 min 0 W/m 9,6 C 12,2 C 0,0 km/h (0 Bft)
31/10/2011 20:35 12,2 C 84 % 1012,6 hPa 0,0 mm 0,0 km/h (0 Bft) S-SE 157 0 min 0 W/m 9,6 C 12,2 C 0,0 km/h (0 Bft)
31/10/2011 20:40 12,2 C 85 % 1012,7 hPa 0,0 mm 2,2 km/h (1 Bft) S 180 0 min 0 W/m 9,8 C 12,2 C 4,0 km/h (1 Bft)
31/10/2011 20:45 12,3 C 85 % 1012,7 hPa 0,0 mm 0,4 km/h (0 Bft) S-SE 157 0 min 0 W/m 9,9 C 12,3 C 3,6 km/h (1 Bft)
31/10/2011 20:50 12,3 C 85 % 1012,7 hPa 0,0 mm 0,0 km/h (0 Bft) S 180 0 min 0 W/m 9,9 C 12,3 C 0,0 km/h (0 Bft)
31/10/2011 20:55 12,4 C 86 % 1012,7 hPa 0,0 mm 2,9 km/h (1 Bft) S 180 0 min 0 W/m 10,1 C 12,4 C 6,1 km/h (2 Bft)
31/10/2011 21:00 12,5 C 86 % 1012,7 hPa 0,0 mm 2,9 km/h (1 Bft) S-SE 157 0 min 0 W/m 10,2 C 12,5 C 4,0 km/h (1 Bft)
31/10/2011 21:05 12,6 C 86 % 1012,7 hPa 0,0 mm 0,0 km/h (0 Bft) S-SE 157 0 min 0 W/m 10,3 C 12,6 C 0,0 km/h (0 Bft)
31/10/2011 21:10 12,8 C 86 % 1012,7 hPa 0,0 mm 2,9 km/h (1 Bft) S 180 0 min 0 W/m 10,5 C 12,8 C 6,5 km/h (2 Bft)
31/10/2011 21:15 12,9 C 86 % 1012,6 hPa 0,0 mm 0,0 km/h (0 Bft) S-SO 202 0 min 0 W/m 10,6 C 12,9 C 0,0 km/h (0 Bft)
31/10/2011 21:20 12,9 C 85 % 1012,7 hPa 0,0 mm 4,7 km/h (1 Bft) S-SE 157 0 min 0 W/m 10,4 C 12,9 C 6,1 km/h (2 Bft)
31/10/2011 21:25 13,0 C 85 % 1012,7 hPa 0,0 mm 1,8 km/h (1 Bft) S-SE 157 0 min 0 W/m 10,5 C 13,0 C 6,5 km/h (2 Bft)
31/10/2011 21:30 13,1 C 85 % 1012,7 hPa 0,0 mm 0,0 km/h (0 Bft) S-SE 157 0 min 0 W/m 10,6 C 13,1 C 2,9 km/h (1 Bft)
31/10/2011 21:35 13,1 C 85 % 1012,7 hPa 0,0 mm 2,9 km/h (1 Bft) S 180 0 min 0 W/m 10,6 C 13,1 C 7,2 km/h (2 Bft)
31/10/2011 21:40 13,1 C 85 % 1012,7 hPa 0,0 mm 1,8 km/h (1 Bft) S-SE 157 0 min 0 W/m 10,6 C 13,1 C 2,9 km/h (1 Bft)
31/10/2011 21:45 13,1 C 85 % 1012,6 hPa 0,0 mm 2,2 km/h (1 Bft) S-SE 157 0 min 0 W/m 10,6 C 13,1 C 4,0 km/h (1 Bft)
31/10/2011 21:50 13,1 C 85 % 1012,6 hPa 0,0 mm 0,4 km/h (0 Bft) S-SE 157 0 min 0 W/m 10,6 C 13,1 C 3,2 km/h (1 Bft)
31/10/2011 21:55 13,1 C 85 % 1012,7 hPa 0,0 mm 0,4 km/h (0 Bft) S 180 0 min 0 W/m 10,6 C 13,1 C 2,9 km/h (1 Bft)
31/10/2011 22:00 13,1 C 85 % 1012,7 hPa 0,0 mm 4,0 km/h (1 Bft) S 180 0 min 0 W/m 10,6 C 13,1 C 4,0 km/h (1 Bft)
31/10/2011 22:05 13,1 C 85 % 1012,6 hPa 0,0 mm 2,2 km/h (1 Bft) S 180 0 min 0 W/m 10,6 C 13,1 C 7,2 km/h (2 Bft)
31/10/2011 22:10 13,1 C 85 % 1012,6 hPa 0,0 mm 5,8 km/h (2 Bft) S-SE 157 0 min 0 W/m 10,6 C 13,1 C 11,5 km/h (2 Bft)
31/10/2011 22:15 13,2 C 85 % 1012,6 hPa 0,0 mm 0,7 km/h (0 Bft) S-SE 157 0 min 0 W/m 10,7 C 13,2 C 4,3 km/h (1 Bft)
31/10/2011 22:20 13,2 C 85 % 1012,6 hPa 0,0 mm 2,2 km/h (1 Bft) SE 135 0 min 0 W/m 10,7 C 13,2 C 4,3 km/h (1 Bft)
31/10/2011 22:25 13,1 C 85 % 1012,6 hPa 0,0 mm 2,5 km/h (1 Bft) SO 225 0 min 0 W/m 10,6 C 13,1 C 4,0 km/h (1 Bft)
31/10/2011 22:30 13,3 C 86 % 1012,5 hPa 0,0 mm 5,0 km/h (1 Bft) S-SO 202 0 min 0 W/m 11,0 C 13,3 C 5,0 km/h (1 Bft)
31/10/2011 22:35 13,4 C 85 % 1012,5 hPa 0,0 mm 3,6 km/h (1 Bft) S 180 0 min 0 W/m 10,9 C 13,4 C 4,3 km/h (1 Bft)
31/10/2011 22:40 13,4 C 85 % 1012,6 hPa 0,0 mm 4,3 km/h (1 Bft) S 180 0 min 0 W/m 10,9 C 13,4 C 4,3 km/h (1 Bft)
31/10/2011 22:45 13,5 C 85 % 1012,6 hPa 0,0 mm 4,0 km/h (1 Bft) S-SO 202 0 min 0 W/m 11,0 C 13,5 C 4,0 km/h (1 Bft)
31/10/2011 22:50 13,5 C 85 % 1012,6 hPa 0,0 mm 3,2 km/h (1 Bft) S-SE 157 0 min 0 W/m 11,0 C 13,5 C 8,6 km/h (2 Bft)
31/10/2011 22:55 13,5 C 85 % 1012,6 hPa 0,0 mm 3,2 km/h (1 Bft) S-SE 157 0 min 0 W/m 11,0 C 13,5 C 6,1 km/h (2 Bft)
_ Min-Heure 07:55 13:45 18:00 - 21:30 - - - - 07:30 07:55 21:15
Minimum _ 5,9 C 57 % 1012,2 hPa - 0,0 km/h (0 Bft) - - - - 4,9 C 5,9 C 0,0 km/h (0 Bft)
_ Max-Heure 13:40 08:40 00:15 04:35 14:00 - - 22:55 22:55 10:55 13:40 14:00
Maximum _ 20,4 C 95 % 1019,2 hPa 0,3 mm 10,1 km/h
SE (2 Bft)
- - 0 min 0 W/m 13,0 C 20,4 C 15,8 km/h
SE (3 Bft)
Moyenne _ 12,6 C 81 % 1015,1 hPa #0,3 mm 1,9 km/h (1 Bft) S-SE - #0 min. 0 W/m 9,1 C 12,6 C 3,6 km/h (1 Bft)
Saint Bonnet de Bellac- Haute Vienne - France